PIMOHWEATHER Station Historical Data
Daily Summary for August 12, 2020 Units:  Metric    English   Both
Daily Weekly Monthly Yearly
  High: Low: Average:
Temperature: 34.0 °C 26.0 °C 29.1 °C
Dew Point: 26.0 °C 22.0 °C 24.4 °C
Humidity: 90% 53% 76%
Wind Speed: 35km/h 0km/h 8.7km/h
Wind Gust: 44km/h - -
Wind- - SE
Pressure: 1017.4 hPa 1013.6 hPa -
Precipitation: 0.00 mm    
 
 
Tabular Data for August 12, 2020
Time Temperature Dew Point Pressure Wind Wind Speed Wind Gust Humidity Rainfall Rate (Hourly) solar
00:04 27.0 °C 25.0 °C 1017.0 hPa NNE 4 km/h 4 km/h 88% 0.00 mm 0.00 W/m2
00:09 27.0 °C 25.0 °C 1017.1 hPa NNE 6 km/h 8 km/h 88% 0.00 mm 0.00 W/m2
00:14 27.0 °C 25.0 °C 1017.0 hPa NNE 5 km/h 8 km/h 88% 0.00 mm 0.00 W/m2
00:19 27.0 °C 25.0 °C 1017.0 hPa NNE 3 km/h 4 km/h 88% 0.00 mm 0.00 W/m2
00:24 27.0 °C 25.0 °C 1017.1 hPa NNE 4 km/h 4 km/h 88% 0.00 mm 0.00 W/m2
00:29 27.0 °C 25.0 °C 1017.1 hPa Calm     88% 0.00 mm 0.00 W/m2
00:34 27.0 °C 25.0 °C 1017.0 hPa Calm     88% 0.00 mm 0.00 W/m2
00:39 27.0 °C 25.0 °C 1017.0 hPa NNE 5 km/h 8 km/h 89% 0.00 mm 0.00 W/m2
00:44 27.0 °C 25.0 °C 1016.8 hPa NNE 1 km/h 4 km/h 89% 0.00 mm 0.00 W/m2
00:49 27.0 °C 25.0 °C 1016.8 hPa NNE 4 km/h 4 km/h 89% 0.00 mm 0.00 W/m2
00:54 27.0 °C 25.0 °C 1016.8 hPa NNE 7 km/h 8 km/h 89% 0.00 mm 0.00 W/m2
00:59 27.0 °C 25.0 °C 1016.7 hPa NNE 6 km/h 8 km/h 89% 0.00 mm 0.00 W/m2
01:04 27.0 °C 25.0 °C 1016.6 hPa NNE 5 km/h 8 km/h 89% 0.00 mm 0.00 W/m2
01:09 27.0 °C 25.0 °C 1016.8 hPa Calm   4 km/h 89% 0.00 mm 0.00 W/m2
01:14 27.0 °C 25.0 °C 1016.6 hPa Calm     89% 0.00 mm 0.00 W/m2
01:19 27.0 °C 25.0 °C 1016.4 hPa Calm   4 km/h 89% 0.00 mm 0.00 W/m2
01:24 27.0 °C 25.0 °C 1016.7 hPa Calm   4 km/h 88% 0.00 mm 0.00 W/m2
01:29 27.0 °C 25.0 °C 1016.4 hPa NE 2 km/h 4 km/h 89% 0.00 mm 0.00 W/m2
01:32 27.0 °C 25.0 °C 1016.6 hPa Calm     89% 0.00 mm 0.00 W/m2
01:39 27.0 °C 25.0 °C 1016.0 hPa Calm     89% 0.00 mm 0.00 W/m2
01:44 27.0 °C 25.0 °C 1016.1 hPa Calm     89% 0.00 mm 0.00 W/m2
01:49 27.0 °C 25.0 °C 1016.2 hPa NE 2 km/h 4 km/h 89% 0.00 mm 0.00 W/m2
01:54 27.0 °C 25.0 °C 1016.2 hPa NE 3 km/h 4 km/h 89% 0.00 mm 0.00 W/m2
01:59 27.0 °C 25.0 °C 1016.2 hPa NE 3 km/h 8 km/h 89% 0.00 mm 0.00 W/m2
02:04 27.0 °C 25.0 °C 1016.1 hPa NE 5 km/h 8 km/h 89% 0.00 mm 0.00 W/m2
02:09 27.0 °C 25.0 °C 1016.2 hPa Calm     89% 0.00 mm 0.00 W/m2
02:14 27.0 °C 25.0 °C 1016.1 hPa Calm   4 km/h 89% 0.00 mm 0.00 W/m2
02:19 27.0 °C 25.0 °C 1016.0 hPa ENE 4 km/h 4 km/h 89% 0.00 mm 0.00 W/m2
02:24 27.0 °C 25.0 °C 1015.9 hPa ENE 2 km/h 4 km/h 89% 0.00 mm 0.00 W/m2
02:29 27.0 °C 25.0 °C 1016.0 hPa ENE 5 km/h 8 km/h 89% 0.00 mm 0.00 W/m2
02:34 27.0 °C 25.0 °C 1015.9 hPa Calm   4 km/h 89% 0.00 mm 0.00 W/m2
02:39 27.0 °C 25.0 °C 1016.0 hPa Calm     89% 0.00 mm 0.00 W/m2
02:44 27.0 °C 25.0 °C 1015.9 hPa Calm     89% 0.00 mm 0.00 W/m2
02:49 27.0 °C 25.0 °C 1015.9 hPa Calm     89% 0.00 mm 0.00 W/m2
02:54 27.0 °C 25.0 °C 1015.6 hPa Calm     89% 0.00 mm 0.00 W/m2
02:59 27.0 °C 25.0 °C 1015.4 hPa Calm     89% 0.00 mm 0.00 W/m2
03:04 27.0 °C 25.0 °C 1015.3 hPa Calm     89% 0.00 mm 0.00 W/m2
03:09 27.0 °C 25.0 °C 1015.4 hPa Calm   4 km/h 89% 0.00 mm 0.00 W/m2
03:14 27.0 °C 25.0 °C 1015.5 hPa ENE 1 km/h 4 km/h 89% 0.00 mm 0.00 W/m2
03:16 27.0 °C 25.0 °C 1015.5 hPa Calm     88% 0.00 mm 0.00 W/m2
03:29 27.0 °C 25.0 °C 1015.5 hPa ENE 5 km/h 8 km/h 89% 0.00 mm 0.00 W/m2
03:34 27.0 °C 25.0 °C 1015.3 hPa ENE 1 km/h 4 km/h 89% 0.00 mm 0.00 W/m2
03:39 27.0 °C 25.0 °C 1015.2 hPa ENE 8 km/h 8 km/h 89% 0.00 mm 0.00 W/m2
03:44 27.0 °C 25.0 °C 1015.2 hPa ENE 5 km/h 8 km/h 89% 0.00 mm 0.00 W/m2
03:49 26.0 °C 25.0 °C 1015.5 hPa Calm   4 km/h 89% 0.00 mm 0.00 W/m2
03:54 26.0 °C 25.0 °C 1015.5 hPa ENE 4 km/h 4 km/h 89% 0.00 mm 0.00 W/m2
03:59 27.0 °C 25.0 °C 1015.5 hPa Calm     89% 0.00 mm 0.00 W/m2
04:04 27.0 °C 25.0 °C 1015.7 hPa ENE 1 km/h 4 km/h 89% 0.00 mm 0.00 W/m2
04:09 27.0 °C 25.0 °C 1015.7 hPa Calm     89% 0.00 mm 0.00 W/m2
04:14 27.0 °C 25.0 °C 1015.8 hPa Calm     89% 0.00 mm 0.00 W/m2
04:19 27.0 °C 25.0 °C 1015.6 hPa Calm     89% 0.00 mm 0.00 W/m2
04:24 27.0 °C 25.0 °C 1015.7 hPa ENE 4 km/h 4 km/h 88% 0.00 mm 0.00 W/m2
04:29 27.0 °C 25.0 °C 1015.7 hPa East 4 km/h 4 km/h 88% 0.00 mm 0.00 W/m2
04:34 27.0 °C 25.0 °C 1015.4 hPa East 4 km/h 4 km/h 88% 0.00 mm 0.00 W/m2
04:39 27.0 °C 25.0 °C 1015.3 hPa East 1 km/h 4 km/h 89% 0.00 mm 0.00 W/m2
04:44 27.0 °C 25.0 °C 1015.5 hPa Calm     89% 0.00 mm 0.00 W/m2
04:49 27.0 °C 25.0 °C 1015.5 hPa Calm     89% 0.00 mm 0.00 W/m2
04:54 27.0 °C 25.0 °C 1015.4 hPa Calm     89% 0.00 mm 0.00 W/m2
04:59 27.0 °C 25.0 °C 1015.6 hPa Calm     89% 0.00 mm 0.00 W/m2
05:00 27.0 °C 25.0 °C 1015.6 hPa Calm     88% 0.00 mm 0.00 W/m2
05:09 27.0 °C 25.0 °C 1015.4 hPa ENE 6 km/h 8 km/h 89% 0.00 mm 0.00 W/m2
05:14 27.0 °C 25.0 °C 1015.5 hPa ENE 9 km/h 12 km/h 89% 0.00 mm 0.00 W/m2
05:19 27.0 °C 25.0 °C 1015.6 hPa NE 13 km/h 16 km/h 90% 0.00 mm 0.00 W/m2
05:24 26.0 °C 25.0 °C 1015.8 hPa NNE 10 km/h 12 km/h 90% 0.00 mm 0.00 W/m2
05:29 26.0 °C 25.0 °C 1015.8 hPa NE 7 km/h 8 km/h 90% 0.00 mm 0.00 W/m2
05:34 26.0 °C 25.0 °C 1015.9 hPa NE 2 km/h 4 km/h 89% 0.00 mm 0.00 W/m2
05:39 26.0 °C 25.0 °C 1015.9 hPa ENE 4 km/h 4 km/h 89% 0.00 mm 0.00 W/m2
05:44 26.0 °C 24.0 °C 1016.0 hPa ENE 4 km/h 4 km/h 88% 0.00 mm 0.36 W/m2
05:49 26.0 °C 24.0 °C 1015.9 hPa Calm   4 km/h 88% 0.00 mm 2.94 W/m2
05:54 26.0 °C 24.0 °C 1016.0 hPa ENE 5 km/h 8 km/h 88% 0.00 mm 4.77 W/m2
05:59 26.0 °C 24.0 °C 1016.2 hPa ENE 9 km/h 12 km/h 88% 0.00 mm 8.56 W/m2
06:04 26.0 °C 24.0 °C 1016.4 hPa ENE 5 km/h 8 km/h 88% 0.00 mm 11.62 W/m2
06:09 26.0 °C 24.0 °C 1016.4 hPa ENE 8 km/h 8 km/h 88% 0.00 mm 15.53 W/m2
06:14 26.0 °C 24.0 °C 1016.3 hPa ENE 5 km/h 8 km/h 88% 0.00 mm 20.31 W/m2
06:19 26.0 °C 24.0 °C 1016.3 hPa ENE 5 km/h 8 km/h 88% 0.00 mm 24.22 W/m2
06:24 26.0 °C 24.0 °C 1016.2 hPa Calm     87% 0.00 mm 28.99 W/m2
06:29 26.0 °C 24.0 °C 1016.4 hPa Calm     87% 0.00 mm 33.39 W/m2
06:34 26.0 °C 24.0 °C 1016.2 hPa ENE 4 km/h 4 km/h 87% 0.00 mm 39.02 W/m2
06:39 26.0 °C 24.0 °C 1016.2 hPa ENE 4 km/h 4 km/h 87% 0.00 mm 44.65 W/m2
06:44 27.0 °C 24.0 °C 1016.4 hPa Calm     86% 0.00 mm 48.56 W/m2
06:49 27.0 °C 24.0 °C 1016.5 hPa ENE 4 km/h 4 km/h 86% 0.00 mm 54.19 W/m2
06:54 27.0 °C 24.0 °C 1016.5 hPa ENE 3 km/h 4 km/h 86% 0.00 mm 61.17 W/m2
06:59 27.0 °C 24.0 °C 1016.5 hPa ENE 4 km/h 4 km/h 85% 0.00 mm 65.45 W/m2
07:04 27.0 °C 24.0 °C 1016.6 hPa ENE 4 km/h 4 km/h 85% 0.00 mm 71.93 W/m2
07:09 27.0 °C 24.0 °C 1016.6 hPa ENE 5 km/h 8 km/h 85% 0.00 mm 78.41 W/m2
07:14 27.0 °C 24.0 °C 1016.5 hPa ENE 4 km/h 4 km/h 85% 0.00 mm 85.39 W/m2
07:19 27.0 °C 24.0 °C 1016.5 hPa ENE 10 km/h 12 km/h 85% 0.00 mm 91.02 W/m2
07:24 27.0 °C 25.0 °C 1016.7 hPa ENE 10 km/h 12 km/h 85% 0.00 mm 98.85 W/m2
07:29 28.0 °C 25.0 °C 1016.6 hPa ENE 1 km/h 4 km/h 85% 0.00 mm 106.68 W/m2
07:34 28.0 °C 25.0 °C 1016.6 hPa ENE 1 km/h 4 km/h 84% 0.00 mm 112.30 W/m2
07:39 28.0 °C 25.0 °C 1016.5 hPa ENE 1 km/h 4 km/h 84% 0.00 mm 114.51 W/m2
07:44 28.0 °C 25.0 °C 1016.5 hPa ENE 9 km/h 12 km/h 85% 0.00 mm 117.93 W/m2
07:49 28.0 °C 25.0 °C 1016.5 hPa ENE 3 km/h 4 km/h 85% 0.00 mm 122.70 W/m2
07:54 28.0 °C 25.0 °C 1016.6 hPa ENE 5 km/h 8 km/h 84% 0.00 mm 125.76 W/m2
07:59 28.0 °C 25.0 °C 1016.7 hPa ENE 2 km/h 4 km/h 84% 0.00 mm 126.61 W/m2
08:04 28.0 °C 25.0 °C 1016.8 hPa ESE 6 km/h 12 km/h 83% 0.00 mm 124.90 W/m2
08:09 28.0 °C 25.0 °C 1016.8 hPa ESE 3 km/h 4 km/h 82% 0.00 mm 130.04 W/m2
08:14 28.0 °C 25.0 °C 1016.8 hPa ESE 4 km/h 4 km/h 82% 0.00 mm 133.95 W/m2
08:19 28.0 °C 25.0 °C 1017.0 hPa ESE 4 km/h 4 km/h 82% 0.00 mm 137.51 W/m2
08:24 28.0 °C 25.0 °C 1017.0 hPa ESE 3 km/h 4 km/h 82% 0.00 mm 138.36 W/m2
08:29 29.0 °C 25.0 °C 1017.0 hPa ESE 2 km/h 4 km/h 81% 0.00 mm 138.36 W/m2
08:34 29.0 °C 25.0 °C 1017.0 hPa ESE 5 km/h 8 km/h 81% 0.00 mm 137.51 W/m2
08:39 29.0 °C 25.0 °C 1017.0 hPa SSE 6 km/h 8 km/h 81% 0.00 mm 135.30 W/m2
08:44 29.0 °C 25.0 °C 1017.1 hPa SSE 6 km/h 8 km/h 80% 0.00 mm 123.56 W/m2
08:49 29.0 °C 25.0 °C 1017.1 hPa SSE 3 km/h 4 km/h 80% 0.00 mm 115.36 W/m2
08:54 29.0 °C 25.0 °C 1017.1 hPa South 8 km/h 8 km/h 79% 0.00 mm 124.90 W/m2
08:59 29.0 °C 25.0 °C 1017.0 hPa South 10 km/h 12 km/h 80% 0.00 mm 140.44 W/m2
09:04 28.0 °C 25.0 °C 1017.0 hPa SSE 8 km/h 8 km/h 80% 0.00 mm 160.02 W/m2
09:09 29.0 °C 25.0 °C 1017.0 hPa SSE 5 km/h 8 km/h 80% 0.00 mm 184.36 W/m2
09:14 29.0 °C 25.0 °C 1017.1 hPa South 8 km/h 12 km/h 79% 0.00 mm 210.78 W/m2
09:19 29.0 °C 24.0 °C 1016.9 hPa SSE 6 km/h 8 km/h 77% 0.00 mm 235.00 W/m2
09:24 29.0 °C 25.0 °C 1016.9 hPa SSE 2 km/h 4 km/h 76% 0.00 mm 252.87 W/m2
09:29 30.0 °C 24.0 °C 1016.7 hPa SSE 4 km/h 4 km/h 75% 0.00 mm 269.38 W/m2
09:34 30.0 °C 25.0 °C 1016.8 hPa NW 8 km/h 12 km/h 74% 0.00 mm 279.78 W/m2
09:39 30.0 °C 25.0 °C 1016.5 hPa WSW 10 km/h 12 km/h 75% 0.00 mm 288.47 W/m2
09:44 30.0 °C 25.0 °C 1016.6 hPa SW 10 km/h 12 km/h 74% 0.00 mm 300.95 W/m2
09:49 30.0 °C 25.0 °C 1016.6 hPa SSW 7 km/h 8 km/h 73% 0.00 mm 306.69 W/m2
09:54 30.0 °C 25.0 °C 1016.6 hPa WSW 9 km/h 12 km/h 74% 0.00 mm 312.69 W/m2
09:59 30.0 °C 25.0 °C 1016.7 hPa West 10 km/h 12 km/h 77% 0.00 mm 309.27 W/m2
10:04 30.0 °C 25.0 °C 1016.6 hPa NW 8 km/h 12 km/h 78% 0.00 mm 310.12 W/m2
10:09 29.0 °C 25.0 °C 1016.7 hPa WSW 9 km/h 12 km/h 79% 0.00 mm 295.32 W/m2
10:14 30.0 °C 25.0 °C 1016.7 hPa WSW 6 km/h 8 km/h 79% 0.00 mm 302.29 W/m2
10:19 30.0 °C 26.0 °C 1016.8 hPa NW 5 km/h 8 km/h 78% 0.00 mm 308.78 W/m2
10:24 30.0 °C 25.0 °C 1016.9 hPa West 11 km/h 12 km/h 78% 0.00 mm 312.32 W/m2
10:29 30.0 °C 26.0 °C 1016.9 hPa NNW 13 km/h 16 km/h 79% 0.00 mm 321.37 W/m2
10:34 30.0 °C 25.0 °C 1017.0 hPa NNW 8 km/h 8 km/h 78% 0.00 mm 296.66 W/m2
10:39 30.0 °C 26.0 °C 1017.1 hPa NNW 14 km/h 16 km/h 79% 0.00 mm 238.56 W/m2
10:44 30.0 °C 25.0 °C 1016.9 hPa NNW 12 km/h 16 km/h 79% 0.00 mm 234.64 W/m2
10:49 29.0 °C 25.0 °C 1017.0 hPa NNW 14 km/h 16 km/h 78% 0.00 mm 280.64 W/m2
10:54 30.0 °C 25.0 °C 1017.0 hPa NW 14 km/h 16 km/h 78% 0.00 mm 305.84 W/m2
10:59 30.0 °C 25.0 °C 1016.9 hPa NNW 17 km/h 20 km/h 76% 0.00 mm 321.37 W/m2
11:04 30.0 °C 25.0 °C 1016.9 hPa NNW 13 km/h 16 km/h 76% 0.00 mm 426.83 W/m2
11:09 30.0 °C 25.0 °C 1016.7 hPa NW 14 km/h 16 km/h 76% 0.00 mm 467.57 W/m2
11:14 30.0 °C 25.0 °C 1016.7 hPa NNW 17 km/h 24 km/h 75% 0.00 mm 552.23 W/m2
11:19 30.0 °C 25.0 °C 1016.8 hPa North 19 km/h 20 km/h 75% 0.00 mm 608.62 W/m2
11:24 31.0 °C 25.0 °C 1016.7 hPa NNW 17 km/h 20 km/h 74% 0.00 mm 668.93 W/m2
11:29 32.0 °C 25.0 °C 1016.7 hPa NE 7 km/h 12 km/h 71% 0.00 mm 608.99 W/m2
11:34 32.0 °C 26.0 °C 1016.5 hPa ENE 17 km/h 24 km/h 69% 0.00 mm 647.65 W/m2
11:39 32.0 °C 25.0 °C 1016.4 hPa NNW 15 km/h 16 km/h 71% 0.00 mm 694.01 W/m2
11:44 32.0 °C 25.0 °C 1016.4 hPa West 8 km/h 12 km/h 68% 0.00 mm 590.39 W/m2
11:49 33.0 °C 24.0 °C 1016.4 hPa South 19 km/h 24 km/h 61% 0.00 mm 543.05 W/m2
11:54 33.0 °C 25.0 °C 1016.4 hPa South 25 km/h 32 km/h 68% 0.00 mm 547.45 W/m2
11:59 32.0 °C 26.0 °C 1016.2 hPa SSW 24 km/h 28 km/h 73% 0.00 mm 476.25 W/m2
12:04 31.0 °C 25.0 °C 1016.1 hPa SSW 19 km/h 20 km/h 73% 0.00 mm 563.48 W/m2
12:09 31.0 °C 25.0 °C 1016.1 hPa North 16 km/h 20 km/h 73% 0.00 mm 650.21 W/m2
12:14 32.0 °C 26.0 °C 1015.9 hPa WSW 13 km/h 20 km/h 70% 0.00 mm 779.89 W/m2
12:19 32.0 °C 26.0 °C 1015.9 hPa SW 23 km/h 32 km/h 72% 0.00 mm 997.77 W/m2
12:24 32.0 °C 26.0 °C 1016.0 hPa SW 15 km/h 16 km/h 69% 0.00 mm 587.70 W/m2
12:29 32.0 °C 26.0 °C 1015.7 hPa NW 27 km/h 32 km/h 71% 0.00 mm 714.81 W/m2
12:34 31.0 °C 25.0 °C 1015.6 hPa NW 22 km/h 32 km/h 70% 0.00 mm 401.63 W/m2
12:39 32.0 °C 25.0 °C 1015.5 hPa NNW 16 km/h 20 km/h 69% 0.00 mm 343.03 W/m2
12:44 32.0 °C 25.0 °C 1015.7 hPa NW 13 km/h 16 km/h 70% 0.00 mm 238.07 W/m2
12:49 31.0 °C 25.0 °C 1015.4 hPa NW 19 km/h 28 km/h 70% 0.00 mm 278.07 W/m2
12:54 31.0 °C 25.0 °C 1015.3 hPa West 11 km/h 12 km/h 70% 0.00 mm 548.67 W/m2
12:59 32.0 °C 25.0 °C 1015.3 hPa WSW 15 km/h 20 km/h 70% 0.00 mm 631.62 W/m2
13:04 31.0 °C 25.0 °C 1015.2 hPa NW 19 km/h 24 km/h 69% 0.00 mm 508.43 W/m2
13:09 32.0 °C 25.0 °C 1015.1 hPa NNW 28 km/h 36 km/h 69% 0.00 mm 380.83 W/m2
13:14 31.0 °C 25.0 °C 1015.3 hPa NNW 26 km/h 28 km/h 69% 0.00 mm 386.95 W/m2
13:19 31.0 °C 25.0 °C 1015.1 hPa NNW 25 km/h 32 km/h 69% 0.00 mm 356.98 W/m2
13:24 31.0 °C 25.0 °C 1015.0 hPa NNW 28 km/h 32 km/h 69% 0.00 mm 333.49 W/m2
13:29 31.0 °C 25.0 °C 1015.0 hPa NNW 26 km/h 32 km/h 69% 0.00 mm 291.89 W/m2
13:34 31.0 °C 25.0 °C 1015.0 hPa NNW 22 km/h 28 km/h 70% 0.00 mm 222.53 W/m2
13:39 31.0 °C 25.0 °C 1014.9 hPa NNW 13 km/h 20 km/h 69% 0.00 mm 159.16 W/m2
13:44 31.0 °C 25.0 °C 1014.8 hPa North 15 km/h 16 km/h 69% 0.00 mm 195.12 W/m2
13:49 32.0 °C 25.0 °C 1014.7 hPa NW 4 km/h 4 km/h 68% 0.00 mm 234.15 W/m2
13:54 32.0 °C 25.0 °C 1014.7 hPa North 11 km/h 16 km/h 67% 0.00 mm 235.98 W/m2
13:59 32.0 °C 24.0 °C 1014.7 hPa NE 10 km/h 12 km/h 66% 0.00 mm 363.95 W/m2
14:04 32.0 °C 25.0 °C 1014.5 hPa NE 3 km/h 4 km/h 65% 0.00 mm 421.20 W/m2
14:09 32.0 °C 25.0 °C 1014.5 hPa SSW 13 km/h 16 km/h 65% 0.00 mm 367.86 W/m2
14:14 32.0 °C 24.0 °C 1014.4 hPa SSW 11 km/h 16 km/h 65% 0.00 mm 340.09 W/m2
14:19 33.0 °C 24.0 °C 1014.4 hPa WSW 15 km/h 24 km/h 60% 0.00 mm 347.80 W/m2
14:24 33.0 °C 23.0 °C 1014.3 hPa NNW 31 km/h 40 km/h 58% 0.00 mm 330.06 W/m2
14:29 32.0 °C 23.0 °C 1014.2 hPa South 24 km/h 32 km/h 58% 0.00 mm 305.84 W/m2
14:34 32.0 °C 23.0 °C 1014.1 hPa SE 23 km/h 32 km/h 58% 0.00 mm 282.84 W/m2
14:39 32.0 °C 23.0 °C 1014.1 hPa SW 13 km/h 20 km/h 58% 0.00 mm 271.10 W/m2
14:44 32.0 °C 23.0 °C 1014.0 hPa East 15 km/h 20 km/h 58% 0.00 mm 279.78 W/m2
14:49 32.0 °C 23.0 °C 1014.0 hPa SE 17 km/h 28 km/h 57% 0.00 mm 330.92 W/m2
14:54 33.0 °C 23.0 °C 1014.0 hPa South 15 km/h 20 km/h 57% 0.00 mm 392.08 W/m2
14:59 33.0 °C 23.0 °C 1014.1 hPa East 19 km/h 28 km/h 56% 0.00 mm 442.86 W/m2
15:04 33.0 °C 23.0 °C 1014.1 hPa North 7 km/h 12 km/h 55% 0.00 mm 504.88 W/m2
15:09 33.0 °C 23.0 °C 1014.1 hPa East 15 km/h 20 km/h 55% 0.00 mm 568.25 W/m2
15:14 34.0 °C 23.0 °C 1013.9 hPa SE 16 km/h 24 km/h 54% 0.00 mm 576.94 W/m2
15:19 34.0 °C 23.0 °C 1013.9 hPa SE 20 km/h 28 km/h 54% 0.00 mm 585.13 W/m2
15:24 34.0 °C 23.0 °C 1013.9 hPa SSE 17 km/h 20 km/h 54% 0.00 mm 589.91 W/m2
15:29 34.0 °C 23.0 °C 1014.0 hPa SSE 17 km/h 20 km/h 54% 0.00 mm 599.08 W/m2
15:34 33.0 °C 23.0 °C 1013.9 hPa ESE 15 km/h 24 km/h 54% 0.00 mm 502.31 W/m2
15:39 34.0 °C 23.0 °C 1013.8 hPa West 10 km/h 16 km/h 53% 0.00 mm 406.89 W/m2
15:44 34.0 °C 23.0 °C 1013.8 hPa NE 18 km/h 24 km/h 53% 0.00 mm 445.91 W/m2
15:49 34.0 °C 22.0 °C 1013.6 hPa NE 20 km/h 28 km/h 53% 0.00 mm 478.45 W/m2
15:54 34.0 °C 23.0 °C 1013.7 hPa East 12 km/h 20 km/h 53% 0.00 mm 462.79 W/m2
15:59 34.0 °C 23.0 °C 1013.7 hPa NNE 13 km/h 20 km/h 54% 0.00 mm 333.49 W/m2
16:04 33.0 °C 23.0 °C 1013.7 hPa SSE 12 km/h 16 km/h 54% 0.00 mm 376.55 W/m2
16:09 33.0 °C 24.0 °C 1013.7 hPa ESE 21 km/h 28 km/h 61% 0.00 mm 322.72 W/m2
16:14 32.0 °C 24.0 °C 1013.8 hPa North 26 km/h 32 km/h 64% 0.00 mm 337.03 W/m2
16:19 31.0 °C 24.0 °C 1013.9 hPa NNE 35 km/h 44 km/h 64% 0.00 mm 307.92 W/m2
16:24 31.0 °C 24.0 °C 1013.9 hPa NNE 32 km/h 40 km/h 64% 0.00 mm 296.17 W/m2
16:29 31.0 °C 23.0 °C 1014.0 hPa NNE 26 km/h 36 km/h 63% 0.00 mm 290.18 W/m2
16:34 31.0 °C 23.0 °C 1014.1 hPa NNE 28 km/h 32 km/h 63% 0.00 mm 303.64 W/m2
16:39 31.0 °C 23.0 °C 1014.3 hPa North 17 km/h 20 km/h 63% 0.00 mm 294.46 W/m2
16:44 31.0 °C 23.0 °C 1014.2 hPa NNE 22 km/h 24 km/h 64% 0.00 mm 299.23 W/m2
16:49 31.0 °C 23.0 °C 1014.1 hPa North 21 km/h 28 km/h 63% 0.00 mm 281.00 W/m2
16:54 31.0 °C 23.0 °C 1014.1 hPa NNE 22 km/h 28 km/h 63% 0.00 mm 272.32 W/m2
16:59 31.0 °C 23.0 °C 1014.1 hPa NW 21 km/h 28 km/h 63% 0.00 mm 238.07 W/m2
17:04 31.0 °C 23.0 °C 1014.0 hPa NNW 20 km/h 24 km/h 63% 0.00 mm 228.15 W/m2
17:09 31.0 °C 23.0 °C 1014.3 hPa NNW 22 km/h 28 km/h 64% 0.00 mm 182.53 W/m2
17:14 31.0 °C 23.0 °C 1014.1 hPa NNW 20 km/h 28 km/h 64% 0.00 mm 141.42 W/m2
17:19 31.0 °C 23.0 °C 1014.1 hPa North 17 km/h 20 km/h 64% 0.00 mm 100.19 W/m2
17:24 31.0 °C 23.0 °C 1014.3 hPa North 12 km/h 16 km/h 64% 0.00 mm 74.50 W/m2
17:29 31.0 °C 23.0 °C 1014.2 hPa North 15 km/h 16 km/h 65% 0.00 mm 62.39 W/m2
17:34 31.0 °C 23.0 °C 1014.3 hPa North 14 km/h 16 km/h 66% 0.00 mm 56.76 W/m2
17:39 30.0 °C 23.0 °C 1014.4 hPa NNE 15 km/h 16 km/h 66% 0.00 mm 52.85 W/m2
17:44 30.0 °C 23.0 °C 1014.4 hPa North 11 km/h 12 km/h 66% 0.00 mm 43.80 W/m2
17:49 30.0 °C 23.0 °C 1014.4 hPa NNE 10 km/h 12 km/h 66% 0.00 mm 36.33 W/m2
17:54 30.0 °C 23.0 °C 1014.4 hPa NNW 15 km/h 16 km/h 66% 0.00 mm 30.70 W/m2
17:59 30.0 °C 23.0 °C 1014.4 hPa North 12 km/h 16 km/h 67% 0.00 mm 24.71 W/m2
18:04 30.0 °C 24.0 °C 1014.5 hPa North 18 km/h 20 km/h 68% 0.00 mm 17.73 W/m2
18:09 30.0 °C 23.0 °C 1014.6 hPa North 14 km/h 20 km/h 68% 0.00 mm 12.11 W/m2
18:14 30.0 °C 24.0 °C 1014.6 hPa NNE 8 km/h 12 km/h 69% 0.00 mm 7.70 W/m2
18:19 30.0 °C 24.0 °C 1014.6 hPa North 11 km/h 12 km/h 69% 0.00 mm 3.43 W/m2
18:24 30.0 °C 24.0 °C 1014.6 hPa North 10 km/h 12 km/h 70% 0.00 mm 0.85 W/m2
18:29 30.0 °C 24.0 °C 1014.7 hPa North 15 km/h 16 km/h 70% 0.00 mm 0.00 W/m2
18:34 30.0 °C 24.0 °C 1014.8 hPa North 12 km/h 16 km/h 71% 0.00 mm 0.00 W/m2
18:39 29.0 °C 24.0 °C 1014.8 hPa North 11 km/h 12 km/h 71% 0.00 mm 0.00 W/m2
18:44 29.0 °C 24.0 °C 1014.9 hPa North 12 km/h 16 km/h 71% 0.00 mm 0.00 W/m2
18:49 29.0 °C 24.0 °C 1014.9 hPa North 8 km/h 8 km/h 71% 0.00 mm 0.00 W/m2
18:54 29.0 °C 24.0 °C 1015.0 hPa NNE 15 km/h 20 km/h 72% 0.00 mm 0.00 W/m2
18:59 29.0 °C 24.0 °C 1015.0 hPa NNE 15 km/h 20 km/h 72% 0.00 mm 0.00 W/m2
19:04 29.0 °C 24.0 °C 1015.0 hPa NNE 17 km/h 20 km/h 72% 0.00 mm 0.00 W/m2
19:09 29.0 °C 24.0 °C 1015.1 hPa NNE 10 km/h 12 km/h 72% 0.00 mm 0.00 W/m2
19:14 29.0 °C 24.0 °C 1015.3 hPa NNE 9 km/h 12 km/h 73% 0.00 mm 0.00 W/m2
19:19 29.0 °C 24.0 °C 1015.4 hPa NNE 6 km/h 8 km/h 73% 0.00 mm 0.00 W/m2
19:24 29.0 °C 24.0 °C 1015.3 hPa NNE 12 km/h 16 km/h 73% 0.00 mm 0.00 W/m2
19:29 29.0 °C 24.0 °C 1015.3 hPa NNE 10 km/h 12 km/h 73% 0.00 mm 0.00 W/m2
19:34 29.0 °C 24.0 °C 1015.4 hPa NNE 10 km/h 12 km/h 73% 0.00 mm 0.00 W/m2
19:39 29.0 °C 24.0 °C 1015.5 hPa NE 9 km/h 12 km/h 74% 0.00 mm 0.00 W/m2
19:44 29.0 °C 24.0 °C 1015.5 hPa NE 5 km/h 8 km/h 74% 0.00 mm 0.00 W/m2
19:49 29.0 °C 24.0 °C 1015.6 hPa NE 5 km/h 8 km/h 74% 0.00 mm 0.00 W/m2
19:54 29.0 °C 24.0 °C 1015.6 hPa NNE 12 km/h 12 km/h 74% 0.00 mm 0.00 W/m2
19:59 29.0 °C 24.0 °C 1015.7 hPa NE 13 km/h 16 km/h 74% 0.00 mm 0.00 W/m2
20:04 29.0 °C 24.0 °C 1015.7 hPa NNE 14 km/h 16 km/h 74% 0.00 mm 0.00 W/m2
20:09 29.0 °C 24.0 °C 1015.9 hPa NE 10 km/h 12 km/h 74% 0.00 mm 0.00 W/m2
20:14 29.0 °C 24.0 °C 1015.9 hPa NE 6 km/h 8 km/h 74% 0.00 mm 0.00 W/m2
20:19 29.0 °C 24.0 °C 1016.0 hPa ENE 6 km/h 8 km/h 73% 0.00 mm 0.00 W/m2
20:24 29.0 °C 24.0 °C 1016.0 hPa NE 5 km/h 8 km/h 73% 0.00 mm 0.00 W/m2
20:29 29.0 °C 24.0 °C 1016.1 hPa NE 5 km/h 8 km/h 73% 0.00 mm 0.00 W/m2
20:34 29.0 °C 24.0 °C 1016.0 hPa East 3 km/h 4 km/h 72% 0.00 mm 0.00 W/m2
20:39 29.0 °C 24.0 °C 1016.1 hPa NE 3 km/h 4 km/h 72% 0.00 mm 0.00 W/m2
20:44 29.0 °C 24.0 °C 1016.2 hPa ENE 1 km/h 4 km/h 72% 0.00 mm 0.00 W/m2
20:47 29.0 °C 23.0 °C 1016.2 hPa ENE 4 km/h 4 km/h 71% 0.00 mm 0.00 W/m2
20:54 29.0 °C 24.0 °C 1016.4 hPa Calm     72% 0.00 mm 0.00 W/m2
20:59 29.0 °C 24.0 °C 1016.6 hPa ENE 3 km/h 4 km/h 72% 0.00 mm 0.00 W/m2
21:04 29.0 °C 24.0 °C 1016.7 hPa ENE 1 km/h 4 km/h 72% 0.00 mm 0.00 W/m2
21:09 29.0 °C 24.0 °C 1016.8 hPa ENE 5 km/h 8 km/h 73% 0.00 mm 0.00 W/m2
21:14 29.0 °C 24.0 °C 1016.8 hPa Calm     73% 0.00 mm 0.00 W/m2
21:19 29.0 °C 24.0 °C 1016.8 hPa ENE 2 km/h 8 km/h 74% 0.00 mm 0.00 W/m2
21:24 29.0 °C 24.0 °C 1016.9 hPa ENE 2 km/h 4 km/h 74% 0.00 mm 0.00 W/m2
21:29 29.0 °C 24.0 °C 1016.9 hPa Calm     74% 0.00 mm 0.00 W/m2
21:34 29.0 °C 24.0 °C 1016.9 hPa Calm     75% 0.00 mm 0.00 W/m2
21:39 29.0 °C 24.0 °C 1017.0 hPa East 1 km/h 4 km/h 75% 0.00 mm 0.00 W/m2
21:44 29.0 °C 24.0 °C 1017.2 hPa Calm     75% 0.00 mm 0.00 W/m2
21:49 29.0 °C 24.0 °C 1017.2 hPa Calm   4 km/h 76% 0.00 mm 0.00 W/m2
21:54 29.0 °C 24.0 °C 1017.2 hPa Calm     76% 0.00 mm 0.00 W/m2
21:59 29.0 °C 24.0 °C 1017.2 hPa East 1 km/h 4 km/h 76% 0.00 mm 0.00 W/m2
22:04 29.0 °C 24.0 °C 1017.4 hPa East 4 km/h 4 km/h 76% 0.00 mm 0.00 W/m2
22:09 29.0 °C 24.0 °C 1017.4 hPa East 4 km/h 4 km/h 76% 0.00 mm 0.00 W/m2
22:14 29.0 °C 24.0 °C 1017.3 hPa East 3 km/h 4 km/h 76% 0.00 mm 0.00 W/m2
22:19 29.0 °C 24.0 °C 1017.2 hPa Calm     76% 0.00 mm 0.00 W/m2
22:24 29.0 °C 24.0 °C 1017.2 hPa Calm     76% 0.00 mm 0.00 W/m2
22:29 29.0 °C 24.0 °C 1017.2 hPa East 5 km/h 8 km/h 76% 0.00 mm 0.00 W/m2
22:31 29.0 °C 24.0 °C 1016.9 hPa East 4 km/h 8 km/h 73% 0.00 mm 0.00 W/m2
22:39 29.0 °C 23.0 °C 1017.1 hPa Calm     72% 0.00 mm 0.00 W/m2
22:44 29.0 °C 24.0 °C 1017.1 hPa East 4 km/h 4 km/h 74% 0.00 mm 0.00 W/m2
22:49 29.0 °C 24.0 °C 1017.1 hPa NNE 8 km/h 8 km/h 74% 0.00 mm 0.00 W/m2
22:54 29.0 °C 24.0 °C 1017.0 hPa NNE 4 km/h 4 km/h 74% 0.00 mm 0.00 W/m2
22:59 29.0 °C 23.0 °C 1017.0 hPa NNE 4 km/h 4 km/h 73% 0.00 mm 0.00 W/m2
23:04 29.0 °C 23.0 °C 1016.9 hPa NE 4 km/h 4 km/h 72% 0.00 mm 0.00 W/m2
23:09 29.0 °C 24.0 °C 1016.9 hPa NNE 16 km/h 16 km/h 76% 0.00 mm 0.00 W/m2
23:14 29.0 °C 24.0 °C 1016.6 hPa NNE 13 km/h 16 km/h 78% 0.00 mm 0.00 W/m2
23:19 28.0 °C 24.0 °C 1016.7 hPa North 12 km/h 12 km/h 79% 0.00 mm 0.00 W/m2
23:24 28.0 °C 24.0 °C 1016.6 hPa NNE 10 km/h 12 km/h 79% 0.00 mm 0.00 W/m2
23:29 28.0 °C 24.0 °C 1016.7 hPa NNE 12 km/h 16 km/h 79% 0.00 mm 0.00 W/m2
23:34 28.0 °C 24.0 °C 1016.5 hPa NNE 10 km/h 12 km/h 79% 0.00 mm 0.00 W/m2
23:39 28.0 °C 24.0 °C 1016.6 hPa NNE 9 km/h 12 km/h 79% 0.00 mm 0.00 W/m2
23:44 28.0 °C 24.0 °C 1016.4 hPa NNE 5 km/h 8 km/h 78% 0.00 mm 0.00 W/m2
23:49 28.0 °C 24.0 °C 1016.3 hPa NNE 1 km/h 4 km/h 78% 0.00 mm 0.00 W/m2
23:54 28.0 °C 24.0 °C 1016.3 hPa Calm     78% 0.00 mm 0.00 W/m2
23:59 28.0 °C 24.0 °C 1016.3 hPa Calm     78% 0.00 mm 0.00 W/m2
PIMOHWEATHER Philippines
Compliments of Weather Underground - 2 mb